This is the latest recevied weather packets stored in our database for station/object CE3MXM-13. If no packets are shown the sender has not sent any weather packets the latest 10 day(s).
| Time | Temp. | Humidity | Pressure | Rain* | Wind** | Luminosity | Snow |
|---|---|---|---|---|---|---|---|
| 1778012710 | 20° C | 61% | 1009.1 hPa | - | - | - | - |
| 1778012415 | 20° C | 60% | 1009 hPa | - | - | - | - |
| 1778012110 | 20° C | 59% | 1008.9 hPa | - | - | - | - |
| 1778011810 | 20.56° C | 59% | 1009.1 hPa | - | - | - | - |
| 1778011509 | 20.56° C | 57% | 1008.7 hPa | - | - | - | - |
| 1778011209 | 20.56° C | 56% | 1008.9 hPa | - | - | - | - |
| 1778010910 | 21.11° C | 56% | 1008.9 hPa | - | - | - | - |
| 1778010612 | 20.56° C | 56% | 1008.8 hPa | - | - | - | - |
| 1778010309 | 20.56° C | 55% | 1008.9 hPa | - | - | - | - |
| 1778010009 | 21.11° C | 54% | 1009.1 hPa | - | - | - | - |
| 1778009711 | 21.11° C | 53% | 1008.8 hPa | - | - | - | - |
| 1778009409 | 21.11° C | 52% | 1009.1 hPa | - | - | - | - |
| 1778009109 | 21.11° C | 51% | 1008.9 hPa | - | - | - | - |
| 1778008809 | 21.67° C | 51% | 1008.8 hPa | - | - | - | - |
| 1778008509 | 21.67° C | 51% | 1008.9 hPa | - | - | - | - |
| 1778008208 | 21.67° C | 49% | 1008.9 hPa | - | - | - | - |
| 1778007908 | 21.67° C | 49% | 1008.7 hPa | - | - | - | - |
| 1778007609 | 21.67° C | 50% | 1008.9 hPa | - | - | - | - |
| 1778007308 | 21.67° C | 49% | 1008.7 hPa | - | - | - | - |
| 1778007009 | 21.67° C | 48% | 1008.9 hPa | - | - | - | - |
| 1778006708 | 21.67° C | 47% | 1008.7 hPa | - | - | - | - |
| 1778006408 | 21.67° C | 47% | 1008.5 hPa | - | - | - | - |
| 1778006108 | 21.67° C | 47% | 1008.6 hPa | - | - | - | - |
| 1778005808 | 22.22° C | 46% | 1008.6 hPa | - | - | - | - |
| 1778005508 | 22.22° C | 45% | 1008.7 hPa | - | - | - | - |
* Rain since midnight (hover to see other rain measurements)
** Current wind speed in m/s (hover to see current wind gust speed)